TimePDT,TemperatureF,Dew PointF,Humidity,Sea Level PressureIn,VisibilityMPH,Wind Direction,Wind SpeedMPH,Gust SpeedMPH,PrecipitationIn,Events,Conditions,WindDirDegrees,DateUTC
12:15 AM,53.6,42.8,67,30.16,10.0,SE,12.7,18.4,0.00,,Overcast,140,2013-04-10 07:15:00
12:35 AM,53.6,42.8,67,30.14,10.0,SE,15.0,19.6,0.00,,Overcast,130,2013-04-10 07:35:00
12:55 AM,53.6,42.8,67,30.14,10.0,SE,15.0,20.7,0.00,,Overcast,140,2013-04-10 07:55:00
1:15 AM,53.6,42.8,67,30.13,10.0,SE,10.4,20.7,0.00,,Overcast,140,2013-04-10 08:15:00
1:35 AM,53.6,42.8,67,30.12,10.0,SE,12.7,25.3,0.00,,Overcast,140,2013-04-10 08:35:00
1:55 AM,53.6,44.6,72,30.12,10.0,SE,13.8,25.3,0.00,,Overcast,140,2013-04-10 08:55:00
2:15 AM,53.6,44.6,72,30.11,10.0,SE,13.8,23.0,0.00,,Mostly Cloudy,140,2013-04-10 09:15:00
2:35 AM,53.6,44.6,72,30.09,10.0,SE,16.1,20.7,0.00,,Mostly Cloudy,140,2013-04-10 09:35:00
2:55 AM,53.6,44.6,72,30.07,10.0,SE,12.7,21.9,0.00,,Mostly Cloudy,140,2013-04-10 09:55:00
3:15 AM,53.6,44.6,72,30.07,10.0,SE,16.1,23.0,0.00,,Scattered Clouds,140,2013-04-10 10:15:00
3:35 AM,53.6,46.4,77,30.07,10.0,SE,12.7,21.9,0.00,,Overcast,140,2013-04-10 10:35:00
3:55 AM,53.6,46.4,77,30.06,10.0,SE,15.0,23.0,0.00,,Overcast,140,2013-04-10 10:55:00
4:15 AM,53.6,46.4,77,30.04,10.0,SE,16.1,23.0,0.00,,Overcast,140,2013-04-10 11:15:00
4:35 AM,51.8,48.2,88,30.02,10.0,SE,12.7,21.9,0.00,,Overcast,140,2013-04-10 11:35:00
4:55 AM,51.8,48.2,88,30.01,10.0,SE,12.7,27.6,0.00,,Overcast,140,2013-04-10 11:55:00
5:15 AM,51.8,48.2,88,30.00,10.0,SE,11.5,21.9,0.00,,Overcast,140,2013-04-10 12:15:00
5:35 AM,51.8,48.2,88,29.98,10.0,SSE,16.1,26.5,0.00,,Overcast,150,2013-04-10 12:35:00
5:55 AM,53.6,48.2,82,29.97,10.0,SSE,15.0,26.5,0.00,,Overcast,150,2013-04-10 12:55:00
6:15 AM,51.8,48.2,88,29.95,10.0,SSE,16.1,24.2,0.00,,Overcast,150,2013-04-10 13:15:00
6:35 AM,51.8,50.0,94,29.94,10.0,SSE,13.8,23.0,0.00,,Overcast,150,2013-04-10 13:35:00
6:55 AM,51.8,50.0,94,29.93,10.0,SSE,15.0,21.9,0.00,,Overcast,160,2013-04-10 13:55:00
7:15 AM,51.8,51.8,100,29.92,8.0,SSE,15.0,24.2,0.00,,Overcast,160,2013-04-10 14:15:00
7:35 AM,51.8,51.8,100,29.91,5.0,SSE,9.2,21.9,0.00,,Overcast,160,2013-04-10 14:35:00
7:55 AM,51.8,51.8,100,29.90,5.0,South,13.8,18.4,0.01,,Overcast,170,2013-04-10 14:55:00
8:15 AM,51.8,51.8,100,29.90,6.0,South,11.5,20.7,0.00,,Overcast,170,2013-04-10 15:15:00
8:35 AM,51.8,51.8,100,29.90,3.0,South,11.5,20.7,0.01,,Overcast,180,2013-04-10 15:35:00
8:55 AM,51.8,51.8,100,29.91,4.0,South,13.8,19.6,0.03,,Overcast,190,2013-04-10 15:55:00
9:15 AM,51.8,51.8,100,29.93,2.5,SSW,11.5,17.3,0.04,,Overcast,210,2013-04-10 16:15:00
9:35 AM,50.0,50.0,100,29.93,3.0,SSW,10.4,17.3,0.09,,Overcast,200,2013-04-10 16:35:00
9:55 AM,50.0,50.0,100,29.93,8.0,South,5.8,-,0.10,,Overcast,190,2013-04-10 16:55:00
10:15 AM,50.0,50.0,100,29.94,10.0,South,6.9,-,0.00,,Overcast,180,2013-04-10 17:15:00
10:35 AM,51.8,51.8,100,29.95,10.0,SW,15.0,20.7,0.01,,Overcast,220,2013-04-10 17:35:00
10:55 AM,48.2,48.2,100,29.97,10.0,SW,19.6,25.3,0.01,,Overcast,220,2013-04-10 17:55:00
11:15 AM,48.2,48.2,100,29.98,10.0,SW,12.7,25.3,0.00,,Overcast,230,2013-04-10 18:15:00
11:35 AM,48.2,48.2,100,29.99,10.0,SW,15.0,26.5,0.00,,Overcast,220,2013-04-10 18:35:00
11:55 AM,48.2,48.2,100,29.99,9.0,WSW,13.8,29.9,0.00,,Overcast,240,2013-04-10 18:55:00
12:15 PM,48.2,48.2,100,30.00,8.0,SW,15.0,24.2,0.00,,Overcast,230,2013-04-10 19:15:00
12:35 PM,48.2,48.2,100,30.01,9.0,WSW,12.7,21.9,0.00,,Overcast,250,2013-04-10 19:35:00
12:55 PM,48.2,48.2,100,30.04,10.0,West,12.7,25.3,0.00,,Overcast,270,2013-04-10 19:55:00
1:15 PM,48.2,48.2,100,30.05,9.0,West,11.5,19.6,0.00,,Overcast,270,2013-04-10 20:15:00
1:35 PM,48.2,48.2,100,30.07,8.0,West,12.7,20.7,0.00,,Overcast,270,2013-04-10 20:35:00
1:55 PM,48.2,48.2,100,30.08,7.0,West,8.1,18.4,0.00,,Overcast,280,2013-04-10 20:55:00
2:15 PM,50.0,50.0,100,30.10,10.0,West,8.1,-,0.00,,Overcast,280,2013-04-10 21:15:00
2:35 PM,50.0,48.2,94,30.11,10.0,West,10.4,-,0.00,,Overcast,280,2013-04-10 21:35:00
2:55 PM,51.8,48.2,88,30.12,10.0,SW,10.4,20.7,0.00,,Overcast,230,2013-04-10 21:55:00
3:15 PM,50.0,48.2,94,30.14,10.0,SW,8.1,19.6,0.00,,Overcast,230,2013-04-10 22:15:00
3:35 PM,50.0,48.2,94,30.14,10.0,SW,8.1,16.1,0.00,,Mostly Cloudy,230,2013-04-10 22:35:00
3:55 PM,50.0,46.4,87,30.15,10.0,West,6.9,19.6,0.00,,Mostly Cloudy,270,2013-04-10 22:55:00
4:15 PM,51.8,44.6,76,30.15,10.0,West,5.8,-,0.00,,Overcast,260,2013-04-10 23:15:00
4:35 PM,51.8,46.4,82,30.15,10.0,West,8.1,19.6,0.00,,Overcast,280,2013-04-10 23:35:00
4:55 PM,51.8,44.6,76,30.16,10.0,WSW,12.7,24.2,0.00,,Scattered Clouds,250,2013-04-10 23:55:00
5:15 PM,51.8,44.6,76,30.17,10.0,WSW,15.0,28.8,0.00,,Partly Cloudy,250,2013-04-11 00:15:00
5:35 PM,53.6,44.6,72,30.17,10.0,WSW,9.2,-,0.00,,Mostly Cloudy,250,2013-04-11 00:35:00
5:55 PM,51.8,44.6,76,30.18,10.0,WSW,15.0,21.9,0.00,,Mostly Cloudy,240,2013-04-11 00:55:00
6:15 PM,51.8,44.6,76,30.18,10.0,West,10.4,21.9,0.00,,Clear,260,2013-04-11 01:15:00
6:35 PM,50.0,44.6,82,30.18,10.0,West,6.9,21.9,0.00,,Clear,260,2013-04-11 01:35:00
6:55 PM,50.0,44.6,82,30.18,10.0,SW,6.9,-,0.00,,Clear,230,2013-04-11 01:55:00
7:35 PM,48.2,44.6,87,30.18,10.0,West,9.2,-,0.00,,Clear,260,2013-04-11 02:35:00
8:15 PM,48.2,44.6,87,30.19,10.0,West,5.8,-,0.00,,Mostly Cloudy,270,2013-04-11 03:15:00
8:55 PM,48.2,44.6,87,30.21,10.0,WSW,8.1,18.4,0.00,,Overcast,250,2013-04-11 03:55:00
9:15 PM,48.2,44.6,87,30.22,10.0,West,10.4,16.1,0.00,,Overcast,270,2013-04-11 04:15:00
9:35 PM,48.2,44.6,87,30.22,10.0,West,6.9,-,0.00,,Overcast,260,2013-04-11 04:35:00
9:55 PM,48.2,44.6,87,30.22,10.0,West,6.9,-,0.00,,Overcast,260,2013-04-11 04:55:00
10:15 PM,48.2,44.6,87,30.22,10.0,WSW,8.1,-,0.00,,Overcast,240,2013-04-11 05:15:00
10:35 PM,48.2,44.6,87,30.23,10.0,West,8.1,19.6,0.00,,Overcast,270,2013-04-11 05:35:00
10:55 PM,46.4,44.6,93,30.23,10.0,WSW,10.4,-,0.00,,Mostly Cloudy,240,2013-04-11 05:55:00
11:15 PM,46.4,46.4,100,30.24,10.0,WSW,10.4,17.3,0.00,,Clear,240,2013-04-11 06:15:00
11:35 PM,46.4,46.4,100,30.24,10.0,WSW,5.8,-,0.00,,Clear,240,2013-04-11 06:35:00
11:55 PM,46.4,46.4,100,30.24,10.0,WSW,5.8,-,0.00,,Clear,240,2013-04-11 06:55:00